Weather History for VIDP - October, 2012

Change the Weather History Date:

Tuesday, October 23, 2012

  Actual Average Record
Temperature  
Mean Temperature 76 °F -  
Max Temperature 87 °F 82 °F 96 °F (2000)
Min Temperature 66 °F 59 °F 60 °F (2005)
Cooling Degree Days 12    
Growing Degree Days 26 (Base 50)    
Moisture  
Dew Point 59 °F    
Average Humidity 63    
Maximum Humidity 83    
Minimum Humidity 33    
Precipitation  
Precipitation 0.00 in - - ()
Sea Level Pressure  
Sea Level Pressure 29.96 in    
Wind  
Wind Speed 2 mph ()    
Max Wind Speed 14 mph    
Max Gust Speed 25 mph    
Visibility 1.2 miles    
Events Rain    
Averages and records for this station are not official NWS values.
T = Trace of Precipitation, MM = Missing Value Source: Averaged Metar Reports

Daily Weather History Graph

Daily Weather History Graph

Search for Another Location

Airport or City:

Trip Planner

Search our weather history database for the weather conditions in past years. The results will help you decide how hot, cold, wet, or windy it might be!

Date:

Astronomy

Oct. 23, 2012 Rise Set
Actual Time 6:27 AM IST 5:43 PM IST
Civil Twilight 6:03 AM IST 6:07 PM IST
Nautical Twilight 5:35 AM IST 6:35 PM IST
Astronomical Twilight 5:08 AM IST 7:02 PM IST
Moon 1:43 PM IST (10/23) No Moon Set
Length of Visible Light 12h 04m
Length of Day
11h 16m
Waxing Gibbous, 62% of the Moon is Illuminated
Oct 23
Waxing Gibbous
Oct 30
Full
Nov 7
Last Quarter
Nov 14
New
Nov 20
First Quarter

Hourly Weather History & Observations

Time (IST) Temp. Heat Index Dew Point Humidity Pressure Visibility Wind Dir Wind Speed Gust Speed Precip Events Conditions
12:00 AM 73.4 °F - 59.0 °F 61% 29.98 in 1.0 mi Calm Calm - N/A   Smoke
1:00 AM 71.6 °F - 57.2 °F 60% 29.98 in 0.9 mi Calm Calm - N/A   Smoke
1:30 AM 71.6 °F - 57.2 °F 60% 29.98 in 0.9 mi Calm Calm - N/A   Smoke
2:00 AM 71.6 °F - 57.2 °F 60% 29.98 in 0.9 mi Calm Calm - N/A   Smoke
2:30 AM 71.6 °F - 57.2 °F 60% 29.98 in 0.9 mi Calm Calm - N/A   Smoke
3:00 AM 68.0 °F - 59.0 °F 73% 29.98 in 0.9 mi Calm Calm - N/A   Smoke
3:30 AM 68.0 °F - 57.2 °F 68% 29.95 in 0.9 mi Calm Calm - N/A   Smoke
4:00 AM 68.0 °F - 59.0 °F 73% 29.95 in 0.9 mi Calm Calm - N/A   Smoke
4:30 AM 68.0 °F - 59.0 °F 73% 29.95 in 0.9 mi Calm Calm - N/A   Smoke
5:00 AM 68.0 °F - 59.0 °F 73% 29.98 in 0.9 mi Calm Calm - N/A   Smoke
5:30 AM 66.2 °F - 59.0 °F 78% 29.98 in 0.9 mi Calm Calm - N/A   Smoke
6:00 AM 66.2 °F - 59.0 °F 78% 29.98 in 0.9 mi Calm Calm - N/A   Smoke
6:30 AM 68.0 °F - 57.2 °F 68% 29.98 in 0.9 mi Calm Calm - N/A   Smoke
7:00 AM 68.0 °F - 57.2 °F 68% 29.98 in 0.7 mi Calm Calm - N/A   Smoke
7:30 AM 69.8 °F - 57.2 °F 64% 30.01 in 0.9 mi Calm Calm - N/A   Smoke
8:00 AM 71.6 °F - 60.8 °F 69% 30.01 in 0.9 mi SSW 3.5 mph - N/A   Smoke
8:30 AM 71.6 °F - 60.8 °F 69% 30.01 in 0.9 mi SW 3.5 mph - N/A   Smoke
9:00 AM 73.4 °F - 59.0 °F 61% 30.04 in 0.9 mi SW 2.3 mph - N/A   Smoke
10:00 AM 78.8 °F - 59.0 °F 51% 30.01 in 0.9 mi Calm Calm - N/A   Smoke
10:30 AM 82.4 °F 82.0 °F 57.2 °F 42% 30.01 in 0.9 mi Variable 2.3 mph - N/A   Smoke
11:00 AM 82.4 °F 82.0 °F 57.2 °F 42% 30.01 in 0.9 mi WSW 4.6 mph - N/A   Smoke
11:30 AM 82.4 °F 82.0 °F 57.2 °F 42% 30.01 in 0.9 mi West 5.8 mph - N/A   Haze
12:00 PM 84.2 °F 83.0 °F 55.4 °F 37% 29.98 in 1.0 mi West 5.8 mph - N/A   Haze
12:30 PM 86.0 °F 84.9 °F 57.2 °F 37% 29.95 in 1.1 mi WSW 4.6 mph - N/A   Haze
1:00 PM 86.0 °F 84.5 °F 55.4 °F 35% 29.95 in 1.4 mi Variable 3.5 mph - N/A   Haze
1:30 PM 87.8 °F 86.1 °F 55.4 °F 33% 29.92 in 1.4 mi SSW 3.5 mph - N/A   Haze
2:00 PM 87.8 °F 86.1 °F 55.4 °F 33% 29.89 in 1.6 mi South 4.6 mph - N/A   Haze
3:00 PM 86.0 °F 84.2 °F 53.6 °F 33% 29.89 in 1.9 mi SSW 3.5 mph - N/A   Haze
3:30 PM 68.0 °F - 62.6 °F 83% 29.98 in 0.9 mi WNW 13.8 mph 25.3 mph N/A Rain Rain
4:30 PM 71.6 °F - 62.6 °F 73% 29.89 in 2.5 mi NNE 8.1 mph - N/A   Haze
5:00 PM 71.6 °F - 64.4 °F 78% 29.89 in 1.9 mi ENE 8.1 mph - N/A   Partly Cloudy
5:30 PM 73.4 °F - 62.6 °F 69% 29.89 in 1.6 mi NNW 4.6 mph - N/A   Haze
6:00 PM 73.4 °F - 62.6 °F 69% 29.92 in 1.6 mi NW 4.6 mph - N/A   Haze
6:30 PM 71.6 °F - 62.6 °F 73% 29.92 in 1.6 mi NW 5.8 mph - N/A   Haze
7:00 PM 71.6 °F - 62.6 °F 73% 29.92 in 1.6 mi North 5.8 mph - N/A   Haze
7:30 PM 73.4 °F - 62.6 °F 69% 29.95 in 1.6 mi NNE 4.6 mph - N/A   Haze
8:00 PM 73.4 °F - 62.6 °F 69% 29.95 in 1.6 mi NNE 4.6 mph - N/A   Haze
8:30 PM 71.6 °F - 60.8 °F 69% 29.95 in 1.3 mi NNW 4.6 mph - N/A   Haze
9:00 PM 71.6 °F - 64.4 °F 78% 29.95 in 1.2 mi NW 4.6 mph - N/A   Mostly Cloudy
9:30 PM 71.6 °F - 64.4 °F 78% 29.95 in 1.1 mi North 6.9 mph - N/A   Mostly Cloudy
10:00 PM 69.8 °F - 62.6 °F 78% 29.95 in 1.1 mi ESE 3.5 mph - N/A   Mostly Cloudy
10:30 PM 69.8 °F - 62.6 °F 78% 29.95 in 1.1 mi ESE 3.5 mph - N/A   Mostly Cloudy
11:00 PM 69.8 °F - 62.6 °F 78% 29.95 in 1.0 mi East 4.6 mph - N/A   Mostly Cloudy